FW6216 Weather Reports


Display with metric or nautical units.
time (UTC)temp
F
wind
direction
speed
MPH
gust
MPH
rain 1hr
in
rain 24hr
in
rain mn
in
humidity
%
barometer
mb
20260504041607 65 180 0.0 4.0 0.00 0.00 0.00 47 1012.1
20260504040046 67 220 0.0 2.0 0.00 0.00 0.00 45 1011.8
20260504033106 70 195 1.0 5.0 0.00 0.00 0.00 42 1011.5
20260504030109 71 337 0.0 0.0 0.00 0.00 0.00 41 1011.4
20260504024536 73 337 2.0 4.0 0.00 0.00 0.00 39 1011.4
20260504023033 74 330 3.0 4.0 0.00 0.00 0.00 38 1011.4
20260504021528 76 343 4.0 6.0 0.00 0.00 0.00 36 1011.4
20260504020137 78 1 3.0 6.0 0.00 0.00 0.00 35 1011.5
20260504014609 78 348 3.0 6.0 0.00 0.00 0.00 34 1011.6
20260504013034 79 354 3.0 7.0 0.00 0.00 0.00 32 1011.7
20260504011610 79 14 3.0 7.0 0.00 0.00 0.00 31 1011.8
20260504010029 80 17 4.0 8.0 0.00 0.00 0.00 31 1012.0
20260504004535 80 4 4.0 10.0 0.00 0.00 0.00 31 1012.2
20260504003109 82 57 5.0 12.0 0.00 0.00 0.00 28 1012.4
20260504000030 83 30 6.0 13.0 0.00 0.00 0.00 28 1012.4
20260503234531 83 6 3.0 8.0 0.00 0.00 0.00 27 1012.6
20260503233109 83 40 5.0 9.0 0.00 0.00 0.00 28 1012.8
20260503231531 83 26 5.0 11.0 0.00 0.00 0.00 29 1013.0
20260503230032 82 351 3.0 13.0 0.00 0.00 0.00 29 1013.3
20260503223032 81 356 4.0 10.0 0.00 0.00 0.00 31 1013.8
20260503220036 81 16 6.0 15.0 0.00 0.00 0.00 31 1014.2
20260503214606 81 11 6.0 15.0 0.00 0.00 0.00 31 1014.4
20260503210033 81 33 6.0 13.0 0.00 0.00 0.00 33 1014.9
20260503204529 82 20 7.0 16.0 0.00 0.00 0.00 32 1015.0
20260503203032 83 24 8.0 14.0 0.00 0.00 0.00 32 1015.1
20260503201532 83 15 5.0 13.0 0.00 0.00 0.00 33 1015.3
20260503200149 82 27 5.0 14.0 0.00 0.00 0.00 33 1015.6
20260503194529 82 26 5.0 13.0 0.00 0.00 0.00 33 1015.7
20260503193031 82 35 6.0 12.0 0.00 0.00 0.00 34 1015.9
20260503190030 81 5 4.0 12.0 0.00 0.00 0.00 35 1016.2
20260503184529 81 20 5.0 11.0 0.00 0.00 0.00 35 1016.3
20260503181529 78 356 4.0 8.0 0.00 0.00 0.00 38 1016.5
20260503180030 77 10 5.0 10.0 0.00 0.00 0.00 38 1016.6
20260503174536 77 11 4.0 9.0 0.00 0.00 0.00 38 1016.7
20260503173037 78 1 4.0 9.0 0.00 0.00 0.00 37 1016.7
20260503171536 79 5 4.0 9.0 0.00 0.00 0.00 37 1016.8
20260503170152 78 357 4.0 7.0 0.00 0.00 0.00 37 1016.7
20260503140108 56 45 0.0 0.0 0.00 0.00 0.00 66 1017.0
20260503081534 58 220 1.0 3.0 0.00 0.00 0.00 60 1016.7
20260503054534 64 46 0.0 2.0 0.00 0.00 0.00 51 1016.3
20260503053032 64 152 2.0 5.0 0.00 0.00 0.00 51 1016.4
20260503050141 68 233 3.0 10.0 0.00 0.00 0.00 46 1016.3
20260503043031 68 221 5.0 11.0 0.00 0.00 0.00 46 1016.2